Weather History for Volkel, Netherlands

Change the Weather History Date:

Sunday, January 12, 2014

  Actual Average Record
Temperature  
Mean Temperature 34 °F -  
Max Temperature 43 °F 41 °F 53 °F (1998)
Min Temperature 26 °F 32 °F 19 °F (1997)
Degree Days  
Heating Degree Days 30    
Moisture  
Dew Point 32 °F    
Average Humidity 93    
Maximum Humidity 100    
Minimum Humidity 74    
Precipitation  
Precipitation 0.00 in - - ()
Sea Level Pressure  
Sea Level Pressure 30.19 in    
Wind  
Wind Speed 5 mph ()    
Max Wind Speed 9 mph    
Max Gust Speed -    
Visibility 4.9 miles    
Events Fog    
Averages and records for this station are not official NWS values.
T = Trace of Precipitation, MM = Missing Value Source: Averaged Metar Reports

Daily Weather History Graph

Daily Weather History Graph

Search for Another Location

Airport:

Trip Planner

Search our weather history database for the weather conditions in past years. The results will help you decide how hot, cold, wet, or windy it might be!

Date:

Astronomy

Jan. 12, 2014 Rise Set
Actual Time 8:39 AM CET 4:52 PM CET
Civil Twilight 8:00 AM CET 5:31 PM CET
Nautical Twilight 7:17 AM CET 6:13 PM CET
Astronomical Twilight 6:37 AM CET 6:53 PM CET
Moon 2:11 PM CET (1/12) 5:20 AM CET (1/12)
Length of Visible Light 9h 31m
Length of Day
8h 12m
Waxing Gibbous, 88% of the Moon is Illuminated
Jan 12
Waxing Gibbous
Jan 16
Full
Jan 24
Last Quarter
Jan 30
New
Feb 6
First Quarter

Hourly Weather History & Observations

Time (CET) Temp. Windchill Dew Point Humidity Pressure Visibility Wind Dir Wind Speed Gust Speed Precip Events Conditions
12:00 AM 32 °F - 31 °F 95% 30.24 in 9 mi SW 6.7 mph - -   Mostly Cloudy
12:02 AM 32.0 °F 25.6 °F 32.0 °F 100% 30.21 in 6.2 mi SW 6.9 mph - N/A   Scattered Clouds
12:03 AM 32.0 °F 24.8 °F 30.2 °F 93% 30.21 in 6.2 mi SW 8.1 mph - N/A   Mostly Cloudy
12:13 AM 32.0 °F 25.6 °F 30.2 °F 93% 30.21 in 6.2 mi SW 6.9 mph - N/A   Partly Cloudy
12:25 AM 32.0 °F 26.4 °F 32.0 °F 100% 30.21 in 6.2 mi WSW 5.8 mph - N/A   Unknown
12:55 AM 32.0 °F 25.6 °F 30.2 °F 93% 30.24 in 6.2 mi SW 6.9 mph - N/A   Partly Cloudy
1:00 AM 31 °F - 31 °F 99% 30.25 in 6 mi SW 6.7 mph - -   Partly Cloudy
1:25 AM 32.0 °F 27.5 °F 32.0 °F 100% 30.24 in 4.3 mi WSW 4.6 mph - N/A   Mist
1:29 AM 32.0 °F 27.5 °F 30.2 °F 93% 30.24 in 5.0 mi WSW 4.6 mph - N/A   Mist
1:39 AM 32.0 °F 27.5 °F 32.0 °F 100% 30.24 in 5.6 mi WSW 4.6 mph - N/A   Mist
1:55 AM 30.2 °F 24.3 °F 30.2 °F 100% 30.24 in 5.6 mi SW 5.8 mph - N/A   Mist
2:00 AM 32 °F - 32 °F 98% 30.27 in 6 mi SW 4.5 mph - -   Mist
2:13 AM 33.8 °F 29.6 °F 33.8 °F 100% 30.24 in 4.3 mi WSW 4.6 mph - N/A   Mist
2:20 AM 33.8 °F 29.6 °F 33.8 °F 100% 30.24 in 5.0 mi WSW 4.6 mph - N/A   Mist
2:25 AM 33.8 °F 29.6 °F 33.8 °F 100% 30.24 in 5.6 mi WSW 4.6 mph - N/A   Partly Cloudy
2:29 AM 32.0 °F 28.7 °F 32.0 °F 100% 30.24 in 4.3 mi WSW 3.5 mph - N/A   Partly Cloudy
2:55 AM 33.8 °F 29.6 °F 33.8 °F 100% 30.24 in 3.1 mi SW 4.6 mph - N/A   Mist
3:00 AM 30 °F - 30 °F 100% 30.27 in 4 mi SW 4.5 mph - -   Mist
3:25 AM 30.2 °F 24.3 °F 30.2 °F 100% 30.24 in 3.7 mi SW 5.8 mph - N/A   Partly Cloudy
3:55 AM 30.2 °F 24.3 °F 30.2 °F 100% 30.27 in 3.1 mi SW 5.8 mph - N/A   Scattered Clouds
4:00 AM 30 °F - 30 °F 98% 30.28 in 4 mi SW 6.7 mph - -   Mist
4:25 AM 30.2 °F 24.3 °F 30.2 °F 100% 30.27 in 3.1 mi SSW 5.8 mph - N/A   Scattered Clouds
4:49 AM 30.2 °F 24.3 °F 28.4 °F 93% 30.27 in - SW 5.8 mph - N/A   Mist
4:55 AM 30.2 °F 24.3 °F 30.2 °F 100% 30.27 in - SW 5.8 mph - N/A   Mist
5:00 AM 29 °F - 28 °F 97% 30.28 in 3 mi SSW 6.7 mph - -   Mist
5:13 AM 28.4 °F 21.2 °F 28.4 °F 100% 30.27 in - SW 6.9 mph - N/A   Mist
5:15 AM 28.4 °F 21.2 °F 28.4 °F 100% 30.27 in - SW 6.9 mph - N/A   Mist
5:25 AM 28.4 °F 21.2 °F 28.4 °F 100% 30.27 in 2.8 mi SW 6.9 mph - N/A   Mist
5:27 AM 30.2 °F 23.4 °F 28.4 °F 93% 30.27 in - SW 6.9 mph - N/A   Mist
5:55 AM 30.2 °F 22.6 °F 30.2 °F 100% 30.27 in - SW 8.1 mph - N/A   Mist
5:59 AM 30.2 °F 22.6 °F 30.2 °F 100% 30.27 in - SW 8.1 mph - N/A   Mist
6:00 AM 30 °F - 30 °F 98% 30.28 in 2 mi SW 6.7 mph - -   Mist
6:25 AM 30.2 °F 23.4 °F 30.2 °F 100% 30.24 in 1.9 mi SW 6.9 mph - N/A   Mist
6:45 AM 30.2 °F 24.3 °F 28.4 °F 93% 30.27 in 0.9 mi SW 5.8 mph - N/A   Mist
6:55 AM 28.4 °F 21.2 °F 28.4 °F 100% 30.27 in 1.2 mi SW 6.9 mph - N/A   Mist
7:00 AM 28 °F - 28 °F 100% 30.27 in 0 mi SW 6.7 mph - - Fog Fog
7:01 AM 28.4 °F 22.2 °F 28.4 °F 100% 30.27 in 0.7 mi SW 5.8 mph - N/A   Mist
7:05 AM 28.4 °F 21.2 °F 28.4 °F 100% 30.24 in - SW 6.9 mph - N/A Fog Light Freezing Fog
7:21 AM 28.4 °F 22.2 °F 28.4 °F 100% 30.24 in 0.6 mi SSW 5.8 mph - N/A Fog Light Freezing Fog
7:25 AM 28.4 °F 22.2 °F 28.4 °F 100% 30.24 in 0.7 mi SSW 5.8 mph - N/A   Mist
7:27 AM 28.4 °F 22.2 °F 26.6 °F 93% 30.24 in 1.2 mi SSW 5.8 mph - N/A   Mist
7:43 AM 28.4 °F 22.2 °F 26.6 °F 93% 30.24 in 1.6 mi SSW 5.8 mph - N/A   Mist
7:55 AM 28.4 °F 23.3 °F 28.4 °F 100% 30.24 in 1.5 mi SSW 4.6 mph - N/A   Mist
8:00 AM 28 °F - 28 °F 97% 30.27 in 1 mi South 4.5 mph - - Fog Fog
8:25 AM 26.6 °F 22.6 °F 26.6 °F 100% 30.24 in 1.3 mi South 3.5 mph - N/A   Mist
8:35 AM 26.6 °F 22.6 °F 26.6 °F 100% 30.24 in 0.8 mi South 3.5 mph - N/A   Mist
8:55 AM 30.2 °F 26.7 °F 28.4 °F 93% 30.24 in 0.7 mi South 3.5 mph - N/A   Mist
9:00 AM 30 °F - 30 °F 98% 30.27 in 1 mi South 2.2 mph - -   Mist
9:10 AM 28.4 °F - 28.4 °F 100% 30.24 in 0.3 mi South 2.3 mph - N/A Fog Light Freezing Fog
9:25 AM 28.4 °F - 28.4 °F 100% 30.24 in 0.2 mi South 2.3 mph - N/A Fog Light Freezing Fog
9:36 AM 28.4 °F - 28.4 °F 100% 30.24 in 0.7 mi South 2.3 mph - N/A   Mist
9:46 AM 30.2 °F - 28.4 °F 93% 30.27 in 1.1 mi SSW 2.3 mph - N/A   Mist
9:55 AM 30.2 °F - 30.2 °F 100% 30.27 in 1.2 mi SSW 2.3 mph - N/A   Mist
10:00 AM 30 °F - 30 °F 100% 30.28 in 1 mi SSW 2.2 mph - - Fog Fog
10:06 AM 30.2 °F - 30.2 °F 100% 30.24 in 1.4 mi SSW 1.2 mph - N/A   Mist
10:25 AM 32.0 °F - 32.0 °F 100% 30.24 in 1.6 mi SSW 2.3 mph - N/A   Mist
10:47 AM 33.8 °F - 33.8 °F 100% 30.24 in - SE 1.2 mph - N/A   Mist
10:55 AM 33.8 °F - 33.8 °F 100% 30.24 in - South 1.2 mph - N/A   Mist
11:00 AM 35 °F - 34 °F 96% 30.27 in 3 mi SSW 2.2 mph - -   Mist
11:01 AM 35.6 °F - 33.8 °F 93% 30.24 in 3.1 mi SSW 2.3 mph - N/A   Mist
11:13 AM 37.4 °F - 35.6 °F 93% 30.24 in 3.1 mi SSW 2.3 mph - N/A   Mist
11:25 AM 37.4 °F - 35.6 °F 93% 30.24 in 3.7 mi South 2.3 mph - N/A   Mist
11:55 AM 39.2 °F 37.0 °F 37.4 °F 93% 30.24 in 5.0 mi SW 3.5 mph - N/A   Mist
12:00 PM 39 °F - 36 °F 87% 30.25 in 5 mi SW 2.2 mph - -   Mist
12:01 PM 39.2 °F 37.0 °F 35.6 °F 87% 30.24 in 4.3 mi SW 3.5 mph - N/A   Mist
12:03 PM 39.2 °F 37.0 °F 37.4 °F 93% 30.24 in 5.0 mi SSW 3.5 mph - N/A   Mist
12:19 PM 41.0 °F - 37.4 °F 87% 30.21 in 5.6 mi SSW 2.3 mph - N/A   Mist
12:25 PM 41.0 °F - 37.4 °F 87% 30.21 in 5.6 mi SSE 2.3 mph - N/A   Mist
12:55 PM 41.0 °F 38.0 °F 37.4 °F 87% 30.21 in 6.2 mi SSE 4.6 mph - N/A   Unknown
1:00 PM 41 °F - 37 °F 82% 30.22 in 7 mi SSE 6.7 mph - -   Partly Cloudy
1:25 PM 41.0 °F 38.0 °F 37.4 °F 87% 30.18 in 6.2 mi SSE 4.6 mph - N/A   Partly Cloudy
1:55 PM 42.8 °F 39.3 °F 37.4 °F 81% 30.18 in 6.2 mi SSE 5.8 mph - N/A   Unknown
2:00 PM 43 °F - 37 °F 74% 30.20 in 9 mi SSE 6.7 mph - -  
2:25 PM 42.8 °F 38.6 °F 37.4 °F 81% 30.15 in 6.2 mi SSE 6.9 mph - N/A   Unknown
2:55 PM 42.8 °F 38.6 °F 37.4 °F 81% 30.15 in 6.2 mi SE 6.9 mph - N/A   Unknown
3:00 PM 42 °F - 37 °F 75% 30.17 in 9 mi SE 6.7 mph - -  
3:25 PM 42.8 °F 38.6 °F 37.4 °F 81% 30.12 in 6.2 mi SSE 6.9 mph - N/A   Unknown
3:55 PM 41.0 °F 37.1 °F 37.4 °F 87% 30.12 in 6.2 mi SE 5.8 mph - N/A   Unknown
4:00 PM 41 °F - 36 °F 77% 30.14 in 9 mi SE 4.5 mph - -  
4:25 PM 41.0 °F 37.1 °F 35.6 °F 81% 30.09 in 6.2 mi ESE 5.8 mph - N/A   Unknown
4:55 PM 39.2 °F 35.9 °F 33.8 °F 81% 30.09 in 6.2 mi ESE 4.6 mph - N/A   Unknown
5:00 PM 38 °F - 34 °F 81% 30.11 in 11 mi ESE 4.5 mph - -  
5:25 PM 37.4 °F 32.8 °F 33.8 °F 87% 30.06 in 6.2 mi ESE 5.8 mph - N/A   Unknown
5:55 PM 35.6 °F 30.7 °F 33.8 °F 93% 30.06 in 6.2 mi ESE 5.8 mph - N/A   Unknown
6:00 PM 36 °F - 33 °F 83% 30.08 in 13 mi ESE 4.5 mph - -  
6:25 PM 35.6 °F 31.7 °F 33.8 °F 93% 30.06 in 6.2 mi ESE 4.6 mph - N/A   Unknown
6:55 PM 35.6 °F 32.8 °F 32.0 °F 87% 30.06 in 6.2 mi ESE 3.5 mph - N/A   Unknown
7:00 PM 35 °F - 32 °F 85% 30.07 in 9 mi ESE 2.2 mph - -   Partly Cloudy
7:25 PM 33.8 °F 29.6 °F 32.0 °F 93% 30.04 in 6.2 mi East 4.6 mph - N/A   Unknown
7:55 PM 33.8 °F 27.7 °F 32.0 °F 93% 30.04 in 6.2 mi East 6.9 mph - N/A   Unknown
8:00 PM 35 °F - 32 °F 83% 30.03 in 11 mi East 8.9 mph - -  
8:25 PM 35.6 °F 32.8 °F 32.0 °F 87% 30.01 in 6.2 mi SE 3.5 mph - N/A   Unknown
8:55 PM 33.8 °F 29.6 °F 30.2 °F 87% 30.01 in 6.2 mi SE 4.6 mph - N/A   Partly Cloudy
9:00 PM 34 °F - 30 °F 81% 30.01 in 12 mi SE 4.5 mph - -  
9:25 PM 33.8 °F 27.0 °F 30.2 °F 87% 29.98 in 6.2 mi ESE 8.1 mph - N/A   Unknown
9:55 PM 35.6 °F 29.2 °F 30.2 °F 81% 29.95 in 6.2 mi SE 8.1 mph - N/A   Unknown
10:00 PM 35 °F - 31 °F 80% 29.98 in 14 mi SE 6.7 mph - -  
10:25 PM 35.6 °F 29.9 °F 30.2 °F 81% 29.95 in 6.2 mi SE 6.9 mph - N/A   Unknown
10:55 PM 35.6 °F 30.7 °F 30.2 °F 81% 29.95 in 6.2 mi SE 5.8 mph - N/A   Unknown
11:00 PM 35 °F - 30 °F 76% 29.95 in 16 mi SE 6.7 mph - -  
11:25 PM 33.8 °F 27.7 °F 30.2 °F 87% 29.92 in 6.2 mi SE 6.9 mph - N/A   Unknown
11:55 PM 33.8 °F 27.7 °F 30.2 °F 87% 29.92 in 6.2 mi SE 6.9 mph - N/A   Unknown